This is the latest recevied weather packets stored in our database for station/object WD4IXD. If no packets are shown the sender has not sent any weather packets the latest 10 day(s).
| Time | Temp. | Humidity | Pressure | Rain* | Wind** | Luminosity | Snow |
|---|---|---|---|---|---|---|---|
| 1777925104 | 23.33° C | 21% | 1010.7 hPa | 0 mm | - | 598 W/m² | - |
| 1777924804 | 23.89° C | 21% | 1010.8 hPa | 0 mm | - | 666 W/m² | - |
| 1777924515 | 24.44° C | 20% | 1010.7 hPa | 0 mm | - | 962 W/m² | - |
| 1777924204 | 24.44° C | 20% | 1010.8 hPa | 0 mm | - | 886 W/m² | - |
| 1777923915 | 23.89° C | 21% | 1010.9 hPa | 0 mm | - | 824 W/m² | - |
| 1777923604 | 23.89° C | 21% | 1010.9 hPa | 0 mm | - | 923 W/m² | - |
| 1777923315 | 23.89° C | 22% | 1010.8 hPa | 0 mm | - | 1034 W/m² | - |
| 1777923004 | 23.33° C | 22% | 1010.9 hPa | 0 mm | - | 918 W/m² | - |
| 1777922715 | 23.33° C | 22% | 1010.9 hPa | 0 mm | - | 1014 W/m² | - |
| 1777922404 | 23.33° C | 23% | 1010.9 hPa | 0 mm | - | 1011 W/m² | - |
| 1777922115 | 22.78° C | 24% | 1010.9 hPa | 0 mm | - | 1027 W/m² | - |
| 1777921804 | 22.22° C | 24% | 1010.9 hPa | 0 mm | - | 907 W/m² | - |
| 1777921504 | 22.22° C | 23% | 1010.9 hPa | 0 mm | - | 1020 W/m² | - |
| 1777921204 | 22.78° C | 23% | 1011 hPa | 0 mm | - | 353 W/m² | - |
| 1777920915 | 23.33° C | 22% | 1011 hPa | 0 mm | - | 895 W/m² | - |
| 1777920604 | 23.33° C | 23% | 1010.9 hPa | 0 mm | - | 1127 W/m² | - |
| 1777920304 | 22.78° C | 24% | 1010.8 hPa | 0 mm | - | 1121 W/m² | - |
| 1777920004 | 21.67° C | 22% | 1011 hPa | 0 mm | - | 1151 W/m² | - |
| 1777919716 | 21.67° C | 22% | 1011 hPa | 0 mm | - | 406 W/m² | - |
| 1777919415 | 21.11° C | 23% | 1010.9 hPa | 0 mm | - | 1202 W/m² | - |
| 1777919104 | 21.11° C | 23% | 1010.8 hPa | 0 mm | - | 1093 W/m² | - |
| 1777918804 | 20.56° C | 24% | 1010.8 hPa | 0 mm | - | 993 W/m² | - |
| 1777918515 | 20° C | 26% | 1010.8 hPa | 0 mm | - | 851 W/m² | - |
| 1777918215 | 19.44° C | 26% | 1010.7 hPa | 0 mm | - | 1018 W/m² | - |
| 1777917904 | 20° C | 30% | 1010.7 hPa | 0 mm | - | 290 W/m² | - |
* Rain latest hour (hover to see other rain measurements)
** Current wind speed in m/s (hover to see current wind gust speed)